Preview of NWS' New Version of Forecast
This preview is not operational and should not be used for support decisions.

Regional Weather Roundup (RWR)

Issued by National Weather Service (NWS)

                            
000
ASUS46 KPQR 210110
RWROR 

OREGON REGIONAL WEATHER ROUNDUP
NATIONAL WEATHER SERVICE PORTLAND OR
500 PM PST WED FEB 20 2019

NOTE: "FAIR" INDICATES FEW OR NO CLOUDS BELOW 12,000 FEET WITH
NO SIGNIFICANT WEATHER AND/OR OBSTRUCTIONS TO VISIBILITY.

ORZ001>013-210200-
NORTHWEST OREGON

  
CITY           SKY/WX    TMP DP  RH WIND       PRES   REMARKS
ASTORIA        PTCLDY    45  36  70 N8        29.83R                  
TILLAMOOK      PTCLDY    45  36  70 W6        29.85R                  
NEWPORT        MOCLDY    45  37  76 NW9       29.87F                  
PORTLAND       LGT RAIN  44  37  76 E8        29.83R                  
VANCOUVER WA   MOCLDY    44  36  73 SE3       29.82S                  
SCAPPOOSE      PTCLDY    43  34  70 W3        29.82R                  
HILLSBORO      MOCLDY    42  37  82 NW5       29.82R                  
AURORA         MOCLDY    41  37  86 S9        29.83R                  
MCMINNVILLE    MOCLDY    37  34  89 S3        29.82S                  
SALEM          LGT RAIN  37  34  89 NE9       29.84R                  
CORVALLIS      MOCLDY    44  38  79 W7        29.83S                  
EUGENE         MOCLDY    39  36  89 SW5       29.83S                  
$$

ORZ021-028-210200-
SOUTHWEST OREGON

  
CITY           SKY/WX    TMP DP  RH WIND       PRES   REMARKS
NORTH BEND     CLOUDY    41  38  89 NE6       29.88F                  
BROOKINGS      MOCLDY    42  38  85 NW7       29.87F                  
ROSEBURG       RAIN      40  37  89 NW6       29.84S FOG              
SEXTON SUMMIT  HVY SNOW  28  27  96 CALM      29.71F VSB<1/4          
GRANTS PASS    LGT RAIN  37  36  93 N8        29.83                   
MEDFORD        CLOUDY    38  32  79 W10       29.79F WCI  31          
$$

ORZ014>016-041-210200-
COLUMBIA GORGE

  
CITY           SKY/WX    TMP DP  RH WIND       PRES   REMARKS
TROUTDALE      MOCLDY    43  37  79 SE5       29.83R                  
HOOD RIVER     MOCLDY    37  32  81 N6        29.82R                  
THE DALLES     CLOUDY    34  28  79 E5        29.86R                  
$$

ORZ029>031-041-044-049-050-061>064-502-503-505>511-210200-
EASTERN OREGON

  
CITY           SKY/WX    TMP DP  RH WIND       PRES   REMARKS
MADRAS         NOT AVBL                                               
REDMOND        LGT SNOW  31  27  85 N6        29.69R FOG              
BEND           MOCLDY    30  23  74 N9        29.68R                  
PRINEVILLE     MOCLDY    32  21  64 CALM      29.68                   
KLAMATH FALLS  LGT SNOW  29  24  82 W6        29.67F                  
LAKEVIEW       CLOUDY    26  22  84 SE7       29.63F                  
HERMISTON      CLOUDY    33  24  69 NE5       29.85S                  
PENDLETON      FLURRIES  29  23  78 NE5       29.80R                  
JOHN DAY       CLOUDY    30  24  77 W5        29.66                   
MEACHAM        CLOUDY    24  20  84 CALM      29.67R                  
LA GRANDE      MOCLDY    30  23  75 NW15      29.71R WCI  19          
BAKER CITY     MOCLDY    32  20  61 NW16      29.65S WCI  21          
BURNS          CLOUDY    28  21  75 W6        29.63S                  
ROME             N/A     31  18  58 W7        29.61S                  
ONTARIO        CLOUDY    37  29  72 N5        29.69S                  
$$